Regional Weather Roundup
Issued by NWS Charleston, WV

Home | Current Version | Previous Version | Graphics & Text | Print | Product List | Glossary On
Versions: 1 2 3 4 5 6 7 8 9 10 11 12 13 14 15 16 17 18 19 20 21 22 23 24 25 26 27 28 29 30 31 32 33 34 35 36 37 38 39 40 41 42 43 44 45 46 47 48 49
000
ASUS41 KRLX 030410
RWRRLX
West Virginia Regional Weather Roundup
National Weather Service Charleston WV
1200 AM EDT MON AUG 03 2015

Note: "fair" indicates few or no clouds below 12,000 feet with no
significant weather and/or obstructions to visibility.

WVZ003-030500-
Northern Panhandle of West Virginia

CITY           SKY/WX    TMP DP  RH WIND       PRES   REMARKS
WHEELING       CLEAR     72  59  63 SW8       29.89F
$$

WVZ009-030500-
Northwest West Virginia

CITY           SKY/WX    TMP DP  RH WIND       PRES   REMARKS
PARKERSBURG    CLEAR     66  61  84 CALM      29.93F
$$

WVZ006-030500-
Western West Virginia

CITY           SKY/WX    TMP DP  RH WIND       PRES   REMARKS
HUNTINGTON     CLEAR     67  63  87 CALM      29.92F
$$

WVZ015-030500-
West Central West Virginia

CITY           SKY/WX    TMP DP  RH WIND       PRES   REMARKS
CHARLESTON     PTCLDY    67  63  87 CALM      29.93F
$$

WVZ022-031-030500-
North Central West Virginia

CITY           SKY/WX    TMP DP  RH WIND       PRES   REMARKS
CLARKSBURG     CLEAR     66  61  84 CALM      29.93F
MORGANTOWN     CLEAR     70  58  65 S3        29.94F
$$

WVZ025-035-042-045-030500-
Southern West Virginia

CITY           SKY/WX    TMP DP  RH WIND       PRES   REMARKS
BECKLEY        CLEAR     65  52  62 S3        30.03S
LOGAN            N/A     68  63  83 CALM      29.94S
BLUEFIELD      CLEAR     71  50  47 CALM      30.05F
LEWISBURG      CLEAR     62  58  88 CALM      30.03R
$$

WVZ047-030500-
Northern Mountains of West Virginia

CITY           SKY/WX    TMP DP  RH WIND       PRES   REMARKS
ELKINS         CLEAR     60  57  89 CALM      30.00F
$$

WVZ052-030500-
Eastern Panhandle of West Virginia

CITY           SKY/WX    TMP DP  RH WIND       PRES   REMARKS
MARTINSBURG    CLEAR     69  61  75 S3        29.90F
PETERSBURG     CLEAR    N/A N/A N/A CALM      29.94F
$$



USA.gov is the U.S. government's official web portal to all federal, state and local government web resources and services.